Location: Moscow
(55.7500°N, 37.5830°E)
Time: 22:19:25
(UTC+03:00)

A-11 Canister half - Pass Details

Date: 03 December 2021
Orbit: 1516 x 1684 km, 47.2° (Epoch: 16 January)

Event Time Altitude Azimuth Distance (km) Brightness Sun altitude
Rises 08:39:48 0° 231° (SW) 4,787 11.5 -0.7°
Reaches altitude 10° 08:43:02 10° 225° (SW) 3,827 11.1 -0.3°
Maximum altitude 08:52:03 44° 158° (SSE) 2,167 10.6 0.6°
Drops below altitude 10° 09:01:19 10° 91° (E) 3,936 11.9 1.5°
Sets 09:04:41 0° 86° (E) 4,935 12.3 1.9°
